Weather in Jerash

Jordan     32°16′30″N   35°53′54″E
temp.,
°C
wind,
m/s
gust,
m/s
humid.,
%
clouds,
%
prec.,
mm/h
press.,
hPa
HPBL,
m
28 february, sun
sun2823:00+11nne224040 0.0 101423
02:00+11wnw234756 0.0 101426
05:00+9nnw224923 0.0 101422
08:00+13nne113912 0.0 101570
11:00+16w43380 0.0 1016915
14:00+16wnw77510 0.0 10141172
17:00+13wnw68670 0.0 1015609
20:00+10wnw47870 0.0 1017301
1 march, mon
mon123:00+9w22943 0.0 101832
02:00+7w229513 0.0 101727
05:00+6w229616 0.0 101823
08:00+9wsw367913 0.1 1019687
11:00+12wsw565840 0.1 10191035
14:00+14wsw665628 0.1 10171307
17:00+12wsw577129 0.2 1018758
20:00+9wnw228415 0.2 101933
2 march, tue
tue223:00+8wnw01900 0.0 102022
02:00+7sw11920 0.0 101922
05:00+6sw11920 0.0 102022
08:00+9ssw11770 0.0 1020222
11:00+13sw34574 0.0 10191168
14:00+15sw66472 0.0 10181345
17:00+13wsw45570 0.0 10181053
20:00+9w22740 0.0 101925
3 march, wed
wed323:00+8wsw12760 0.0 101922
02:00+7wsw12820 0.0 101922
05:00+6ssw11870 0.0 101922
08:00+9sw127711 0.0 1019399
11:00+12wsw33531 0.0 10181222
14:00+13wsw54481 0.0 10161336
17:00+10w67740 0.2 1016666
20:00+8wnw36820 0.3 1017363
4 march, thu
thu423:00+7w11851 0.0 101729
02:00+6w23839 0.0 101770
05:00+6wsw478859 0.0 1017295
08:00+7w698252 0.1 1018749
11:00+11wnw896573 0.1 10181061
14:00+12wnw786371 0.1 10171111
17:00+10wnw897648 0.0 1019787
20:00+9w488924 0.1 1021267